Lid_Strength_Index
2 1 -1 -1 -1 -1 -1 -1 -1 -1 -1 -1 -1 -1 -1 -1 -1 -1 -1 -1 -1 -1 -1 -1 -1 -1 -1 -1 -2 -1 -2 -1 -1 -1 -1 -1 -1 -1 -1 -1 -1 -1 -2
2 1 -1 -1 -1 -1 -1 -1 -1 -1 -1 -1 -1 -1 -1 -1 -1 -1 -1 -1 -1 -1 -1 -1 -1 -2 -2 -1 -1 -1 -1 -1 -1 -1 -1 -1 -1 -2 -2 -1 -1 -1 -1
1 0 -0 -1 -1 -1 -1 -1 -1 -1 -1 -1 -1 -1 -1 -1 -1 -1 -1 -1 -1 -1 -1 -1 -1 -1 -2 -1 -1 -1 -1 -1 -1 -1 -1 -0 -0 -2 -2 -2 -2 -2 -2
1 -0 -0 -1 -1 -1 -1 -1 -1 -1 -1 -1 -1 -1 -1 -1 -1 -1 -1 -1 -1 -1 -1 -1 -1 -1 -1 -1 -1 -1 -2 -1 -1 -0 0 -0 -0 -2 -2 -2 -2 -2 -2
1 0 -0 -1 -1 -1 -1 -1 -1 -1 -1 -1 -1 -1 -2 -1 -1 -1 -1 -1 -1 -1 -1 -1 -1 -1 -1 -1 -2 -2 -1 -1 -1 0 1 0 -0 -1 -2 -2 -2 -2 -2
1 0 -1 -1 -1 -1 -1 -1 -1 -1 -1 -1 -1 -1 -1 -1 -1 -1 -1 -1 -1 -1 -1 -2 -1 -1 -1 -1 -2 -1 -1 0 1 2 1 -0 -0 -2 -2 -2 -2 -2 -1
2 1 -0 -1 -1 -1 -1 -1 -1 -1 -1 -1 -1 -1 -1 -1 -1 -1 -1 -1 -1 -1 -2 -1 -1 -1 -1 -2 -1 -1 -0 1 3 3 3 2 -0 -2 -2 -2 -2 -2 -2
1 0 0 -1 -1 -1 -1 -1 -1 -1 -1 -1 -1 -1 -1 -1 -1 -1 -1 -1 -1 -1 -1 -0 -1 -0 -1 -1 -2 -1 0 1 3 4 3 2 -1 -2 -2 -1 -2 -2 -2
1 0 1 0 -0 -1 -1 -1 -1 -1 -1 -1 -1 -1 1 0 0 -1 -1 -1 -1 -0 0 1 0 0 0 -1 -1 -0 0 0 3 3 2 1 -2 -2 -2 -2 -2 -2 -2
1 1 1 1 1 1 0 -1 -1 -1 -1 -0 0 1 1 1 1 1 1 0 0 1 1 2 1 1 1 1 -1 -0 1 2 4 4 3 0 -2 -2 -2 -2 -2 -2 -2
2 1 1 1 2 2 1 -0 -1 -0 0 1 1 1 2 3 3 3 2 2 2 2 2 3 3 3 3 1 2 2 3 6 5 4 4 -2 -2 -2 -2 -2 -2 -1 -1
3 2 1 1 3 2 1 4 4 2 3 3 4 5 5 5 5 4 3 2 3 4 5 6 6 8 10 10 5 4 6 6 5 5 2 -2 -2 -2 -1 -1 -1 -1 -1
2 2 1 1 3 3 4 4 4 7 8 8 7 6 6 7 7 8 8 10 10 11 13 13 14 14 14 11 9 7 6 6 6 3 0 -1 -0 -0 -0 0 1 1 1
3 3 2 2 3 4 5 4 6 6 8 8 8 8 8 9 10 11 13 14 15 15 15 16 15 15 14 12 8 7 7 7 7 5 1 0 0 -0 -0 -0 0 1 1
3 3 3 3 3 5 6 7 7 8 8 8 9 10 9 11 13 14 15 15 15 15 15 16 16 16 15 12 8 7 8 8 8 6 4 1 1 1 1 0 1 1 1
2 3 2 3 4 5 6 7 8 9 9 9 9 10 11 13 15 15 15 15 16 15 16 15 16 16 16 13 11 10 10 9 9 8 6 4 3 2 2 2 2 2 2
2 3 3 2 4 4 5 7 8 9 10 11 10 11 11 12 14 15 15 15 16 16 15 15 16 16 17 15 14 11 10 10 9 9 9 9 8 4 4 4 4 4 4
3 3 3 2 3 4 5 7 8 10 11 11 12 12 11 12 12 14 14 15 15 15 16 16 15 17 17 16 16 14 13 11 11 11 11 11 11 11 7 6 6 5 5
3 3 3 2 3 4 6 8 9 11 11 11 12 12 12 12 12 13 13 14 14 14 15 15 16 16 16 16 16 16 16 14 12 11 13 13 12 13 13 8 8 7 7
3 3 2 2 3 4 7 9 10 11 12 12 12 12 12 11 11 13 13 13 13 14 14 14 15 16 16 15 13 15 15 14 14 14 14 13 13 14 14 14 14 12 8
4 4 3 3 4 5 8 9 11 12 12 13 12 12 12 11 12 12 13 13 14 14 14 13 15 14 15 15 16 16 15 14 14 14 14 14 14 14 15 15 15 15 14
4 4 4 5 5 6 7 8 9 11 12 13 12 12 12 12 12 12 12 12 12 13 14 14 13 14 15 14 16 17 19 18 16 15 16 14 15 15 15 15 15 15 15
8 5 5 5 5 6 7 10 11 12 13 14 13 13 12 12 12 12 12 12 12 12 13 12 13 13 14 16 15 14 17 17 17 16 16 15 16 16 15 15 15 15 15
11 7 5 6 6 7 9 10 11 11 13 13 13 13 13 12 12 11 12 11 12 11 12 12 12 13 13 15 16 15 16 16 17 18 16 16 16 15 16 16 16 15 15
12 11 7 7 8 9 9 10 10 12 12 13 13 14 14 13 12 12 12 12 12 12 12 13 13 13 15 15 16 16 17 17 17 17 18 18 16 16 16 16 16 16 15
14 13 11 8 9 9 10 10 11 12 13 14 14 14 14 14 14 13 13 12 12 13 13 13 13 13 14 14 15 16 16 17 18 18 19 19 18 17 16 16 16 16 16